Randolph AFB, TX

3:17 AM CDT on May 21, 2018 (GMT -0500)
Randolph Air Force Base

Weather History for KRND - December, 2012

Change the Weather History Date:

Saturday, December 29, 2012

  Actual Average Record
Temperature  
Mean Temperature 42 °F -  
Max Temperature 51 °F 60 °F 82 °F (1996)
Min Temperature 33 °F 40 °F 30 °F (1997)
Degree Days  
Heating Degree Days 22    
Moisture  
Dew Point 21 °F    
Average Humidity 43    
Maximum Humidity 69    
Minimum Humidity 29    
Precipitation  
Precipitation 0.00 in - - ()
Sea Level Pressure  
Sea Level Pressure 30.38 in    
Wind  
Wind Speed 9 mph (North)    
Max Wind Speed 21 mph    
Max Gust Speed 29 mph    
Visibility 10 miles    
Events      
Averages and records for this station are not official NWS values.
T = Trace of Precipitation, MM = Missing Value Source: NWS Daily Summary

Daily Weather History Graph

Daily Weather History Graph

Search for Another Location

Airport or City:

Astronomy

Dec. 29, 2012 Rise Set
Actual Time 7:27 AM CST 5:43 PM CST
Civil Twilight 7:01 AM CST 6:09 PM CST
Nautical Twilight 6:31 AM CST 6:39 PM CST
Astronomical Twilight 6:02 AM CST 7:08 PM CST
Moon 7:10 PM CST (12/29) 8:08 AM CST (12/29)
Length of Visible Light 11h 08m
Length of Day
10h 16m
Full, 98% of the Moon is Illuminated
Dec 29
Full
Jan 4
Last Quarter
Jan 11
New
Jan 18
First Quarter
Jan 26
Full

Hourly Weather History & Observations

Time (CST) Temp. Windchill Dew Point Humidity Pressure Visibility Wind Dir Wind Speed Gust Speed Precip Events Conditions
12:55 AM 40.1 °F 30.5 °F 23.2 °F 51% 30.17 in 10.0 mi North 20.7 mph 28.8 mph N/A   Clear
1:55 AM 39.7 °F 31.5 °F 19.8 °F 45% 30.21 in 10.0 mi North 15.0 mph 18.4 mph N/A   Clear
2:55 AM 39.0 °F 31.0 °F 18.1 °F 43% 30.23 in 10.0 mi North 13.8 mph - N/A   Clear
3:55 AM 39.2 °F 31.6 °F 17.2 °F 41% 30.25 in 10.0 mi North 12.7 mph - N/A   Scattered Clouds
4:55 AM 38.1 °F 34.6 °F 17.6 °F 44% 30.29 in 10.0 mi North 4.6 mph - N/A   Clear
5:55 AM 37.2 °F 34.7 °F 17.6 °F 45% 30.34 in 10.0 mi South 3.5 mph - N/A   Clear
6:55 AM 34.3 °F 30.2 °F 20.1 °F 56% 30.38 in 10.0 mi South 4.6 mph - N/A   Partly Cloudy
7:55 AM 36.1 °F 33.5 °F 19.8 °F 51% 30.41 in 10.0 mi South 3.5 mph - N/A   Clear
8:55 AM 38.8 °F 35.4 °F 19.9 °F 47% 30.43 in 10.0 mi South 4.6 mph - N/A   Clear
9:55 AM 41.7 °F - 20.5 °F 43% 30.46 in 10.0 mi Calm Calm - N/A   Clear
10:55 AM 45.1 °F - 18.5 °F 35% 30.48 in 10.0 mi Calm Calm - N/A   Partly Cloudy
11:55 AM 46.2 °F - 18.9 °F 34% 30.47 in 10.0 mi Calm Calm - N/A   Partly Cloudy
12:55 PM 49.6 °F - 19.8 °F 31% 30.42 in 10.0 mi North 9.2 mph - N/A   Clear
1:55 PM 49.6 °F - 19.6 °F 31% 30.40 in 10.0 mi NNW 8.1 mph - N/A   Partly Cloudy
2:55 PM 51.4 °F - 19.6 °F 29% 30.40 in 10.0 mi NNW 10.4 mph - N/A   Clear
3:55 PM 51.4 °F - 19.6 °F 29% 30.39 in 10.0 mi NNE 6.9 mph - N/A   Partly Cloudy
4:55 PM 50.7 °F - 19.8 °F 30% 30.40 in 10.0 mi NNE 8.1 mph - N/A   Clear
5:55 PM 48.2 °F - 20.7 °F 34% 30.41 in 10.0 mi Calm Calm - N/A   Clear
6:55 PM 45.3 °F 44.0 °F 22.8 °F 41% 30.42 in 10.0 mi SSE 3.5 mph - N/A   Clear
7:55 PM 44.8 °F - 22.3 °F 41% 30.43 in 10.0 mi Calm Calm - N/A   Clear
8:55 PM 42.4 °F - 23.5 °F 47% 30.45 in 10.0 mi Calm Calm - N/A   Clear
9:55 PM 39.0 °F - 24.8 °F 57% 30.44 in 10.0 mi Calm Calm - N/A   Clear
10:55 PM 36.1 °F 32.3 °F 24.3 °F 62% 30.45 in 10.0 mi NNW 4.6 mph - N/A   Clear
11:55 PM 33.6 °F 28.4 °F 24.3 °F 69% 30.45 in 10.0 mi NW 5.8 mph - N/A   Scattered Clouds